User: anonymous
Location: Mentone
(34.5413°N, 85.5351°W)
Time: 16:24:57
(UTC-05:00)
Language:

ERBS - Orbit

View from above orbital plane
View from above orbital plane
View from above satellite
View from above satellite

Ground track
Ground track

The orbit data is extracted from the following two-line orbital elements,

1 15354U 84108B   14109.17620827  .00015955  00000-0  59008-3 0  4644
2 15354 057.0151 021.8913 0022605 088.1247 272.2390 15.27692334620609
Epoch (UTC): 19 April 2014 04:13:44
Eccentricity: 0.0022605
inclination: 57.0151°
perigee height: 467 km
apogee height: 498 km
right ascension of ascending node: 21.8913°
argument of perigee: 88.1247°
revolutions per day: 15.27692334
mean anomaly at epoch: 272.2390°
orbit number at epoch: 62060

The dashed part of the orbit path shows where the satellite is in the earth's shadow,  

DLR